Location: Brachbach
(49.1847°N, 9.7240°E)
Time: 06:28:58
(UTC+00:00)

PCSat - Pass Details

Date: 12 March 2026
Orbit: 780 x 790 km, 67.1° (Epoch: 13 April)

Event Time Altitude Azimuth Distance (km) Brightness Sun altitude
Exits shadow 03:47:13 - 320° (NW) 3,182 12.5 -19.2°
Reaches altitude 10° 03:50:46 10° 346° (NNW) 2,365 12.1 -18.7°
Maximum altitude 03:53:11 13° 13° (NNE) 2,166 12.2 -18.3°
Drops below altitude 10° 03:55:36 10° 39° (NE) 2,363 12.8 -17.9°
Sets 03:59:32 0° 68° (ENE) 3,291 14.5 -17.3°
